Location: Asheville, NC
(35.6000°N, 82.5500°W)
Time: 03:31:59
(UTC-04:00)

Vanguard 2 - Pass Details

Date: 15 March 2018
Orbit: 553 x 2939 km, 32.9° (Epoch: 17 June)

Event Time Altitude Azimuth Distance (km) Brightness Sun altitude
Rises 19:08:02 0° 282° (WNW) 6,757 14.1 5.2°
Reaches altitude 10° 19:14:12 10° 269° (W) 5,574 14.6 4.0°
Maximum altitude 19:25:04 22° 228° (SW) 4,074 12.1 1.8°
Drops below altitude 10° 19:33:43 10° 183° (S) 4,294 11.4 0.0°
Sets 19:37:42 0° 168° (SSE) 4,898 11.5 -0.8°
